EB1RD-13 Weather Reports


time (UTC)temp
F
wind
direction
speed
knots
gust
knots
rain 1hr
in
rain 24hr
in
rain mn
in
humidity
%
barometer
mb
20260905214542 73 79 5.2 8.7 0.00 0.00 0.00 67
20260905213540 73 119 1.7 3.5 0.00 0.00 0.00 67
20260905212538 73 90 2.6 4.3 0.00 0.00 0.00 66
20260905211536 74 253 1.7 5.2 0.00 0.00 0.00 66
20260905210554 74 15 1.7 3.5 0.00 0.00 0.00 63
20260905205532 75 325 3.5 6.1 0.00 0.00 0.00 57
20260905204530 78 317 2.6 7.0 0.00 0.00 0.00 48
20260905203528 79 59 3.5 6.1 0.00 0.00 0.00 47
20260905202546 79 96 1.7 2.6 0.00 0.00 0.00 46
20260905201524 79 41 1.7 3.5 0.00 0.00 0.00 48
20260905200522 79 158 3.5 6.1 0.00 0.00 0.00 52
20260905195520 80 24 4.3 7.8 0.00 0.00 0.00 50
20260905194518 81 266 4.3 12.2 0.00 0.00 0.00 45
20260905193518 82 304 10.4 20.0 0.00 0.00 0.00 43
20260905192614 87 215 9.6 20.0 0.00 0.00 0.00 29
20260905191612 85 209 3.5 8.7 0.00 0.00 0.00 29
20260905190611 81 242 3.5 8.7 0.00 0.00 0.00 37
20260905185608 75 286 4.3 7.0 0.00 0.00 0.00 67
20260905184606 75 66 3.5 7.0 0.00 0.00 0.00 66
20260905183604 75 32 0.9 3.5 0.00 0.00 0.00 66
20260905182602 75 68 0.0 1.7 0.00 0.00 0.00 66
20260905181600 75 16 0.9 3.5 0.00 0.00 0.00 65
20260905180559 75 45 1.7 1.7 0.00 0.00 0.00 64
20260905175557 77 315 0.9 2.6 0.00 0.00 0.00 62
20260905174554 77 315 0.9 2.6 0.00 0.00 0.00 62
20260905173552 77 343 0.9 1.7 0.00 0.00 0.00 62
20260905172611 77 40 1.7 3.5 0.00 0.00 0.00 61
20260905171548 77 36 1.7 2.6 0.00 0.00 0.00 61
20260905170546 77 30 1.7 3.5 0.00 0.00 0.00 60
20260905165604 77 38 1.7 3.5 0.00 0.00 0.00 60
20260905164542 78 37 3.5 4.3 0.00 0.00 0.00 59
20260905163540 77 14 1.7 3.5 0.00 0.00 0.00 60
20260905162539 77 33 5.2 7.8 0.00 0.00 0.00 59
20260905161558 78 351 2.6 3.5 0.00 0.00 0.00 59
20260905160554 79 0 4.3 6.1 0.00 0.00 0.00 55
20260905155532 80 296 2.6 5.2 0.00 0.00 0.00 54
20260905154531 80 37 2.6 4.3 0.00 0.00 0.00 53
20260905153530 81 30 2.6 6.1 0.00 0.00 0.00 51
20260905152528 82 331 3.5 6.1 0.00 0.00 0.00 50
20260905151524 83 18 1.7 3.5 0.00 0.00 0.00 50
20260905150523 83 84 2.6 4.3 0.00 0.00 0.00 49
20260905145541 83 356 1.7 3.5 0.00 0.00 0.00 49
20260905144518 83 345 2.6 6.1 0.00 0.00 0.00 48
20260905143537 83 283 1.7 3.5 0.00 0.00 0.00 47
20260905142535 83 40 3.5 6.1 0.00 0.00 0.00 46
20260905141613 83 17 2.6 4.3 0.00 0.00 0.00 46
20260905140611 83 45 3.5 7.0 0.00 0.00 0.00 45
20260905135609 83 66 2.6 5.2 0.00 0.00 0.00 45
20260905134627 82 81 5.2 11.3 0.00 0.00 0.00 46
20260905133625 83 46 5.2 7.8 0.00 0.00 0.00 46
20260905132603 82 92 5.2 7.8 0.00 0.00 0.00 48
20260905131601 82 62 7.0 11.3 0.00 0.00 0.00 46
20260905130559 82 124 3.5 7.8 0.00 0.00 0.00 48
20260905125557 82 60 4.3 7.0 0.00 0.00 0.00 48
20260905124555 81 59 4.3 7.0 0.00 0.00 0.00 49
20260905123553 81 77 3.5 8.7 0.00 0.00 0.00 49
20260905122551 80 84 3.5 7.0 0.00 0.00 0.00 51
20260905121549 80 103 5.2 9.6 0.00 0.00 0.00 51
20260905120547 80 90 3.5 5.2 0.00 0.00 0.00 51
20260905115545 80 103 2.6 7.0 0.00 0.00 0.00 52
20260905114543 79 91 3.5 7.0 0.00 0.00 0.00 53
20260905113541 79 74 3.5 7.0 0.00 0.00 0.00 52
20260905112559 79 102 3.5 7.0 0.00 0.00 0.00 54
20260905111537 77 139 3.5 8.7 0.00 0.00 0.00 58
20260905110557 77 63 5.2 8.7 0.00 0.00 0.00 61
20260905105533 75 52 3.5 7.8 0.00 0.00 0.00 64
20260905104531 74 101 4.3 9.6 0.00 0.00 0.00 65
20260905103529 74 55 5.2 9.6 0.00 0.00 0.00 67
20260905102549 73 44 5.2 7.8 0.00 0.00 0.00 67
20260905101526 73 92 2.6 5.2 0.00 0.00 0.00 69
20260905100525 73 68 3.5 6.1 0.00 0.00 0.00 69
20260905095522 72 62 2.6 6.1 0.00 0.00 0.00 69
20260905094519 72 60 3.5 7.0 0.00 0.00 0.00 71
20260905093518 71 65 2.6 5.2 0.00 0.00 0.00 74
20260905092515 70 80 3.5 7.8 0.00 0.00 0.00 74
20260905091614 70 75 2.6 5.2 0.00 0.00 0.00 74
20260905090632 70 83 3.5 7.0 0.00 0.00 0.00 76
20260905085610 70 58 3.5 6.1 0.00 0.00 0.00 76
20260905084608 70 47 4.3 7.0 0.00 0.00 0.00 77
20260905083606 70 88 2.6 5.2 0.00 0.00 0.00 78
20260905082604 69 95 2.6 7.0 0.00 0.00 0.00 78
20260905081602 69 67 1.7 3.5 0.00 0.00 0.00 79
20260905080600 69 90 1.7 2.6 0.00 0.00 0.00 79
20260905075558 69 95 1.7 2.6 0.00 0.00 0.00 79
20260905074556 69 57 1.7 3.5 0.00 0.00 0.00 79
20260905073554 69 53 2.6 4.3 0.00 0.00 0.00 79
20260905072552 69 57 2.6 4.3 0.00 0.00 0.00 80
20260905071550 69 62 4.3 7.0 0.00 0.00 0.00 81
20260905070608 69 50 1.7 3.5 0.00 0.00 0.00 82
20260905065546 69 0.0 0.9 0.00 0.00 0.00 82
20260905064544 69 90 0.9 3.5 0.00 0.00 0.00 83
20260905063602 69 85 0.9 3.5 0.00 0.00 0.00 83
20260905062540 69 0.0 0.9 0.00 0.00 0.00 83
20260905061558 69 86 0.9 1.7 0.00 0.00 0.00 83
20260905060536 69 90 0.9 1.7 0.00 0.00 0.00 83
20260905055534 69 90 0.9 2.6 0.00 0.00 0.00 83
20260905054532 69 94 1.7 3.5 0.00 0.00 0.00 83
20260905053530 68 90 0.9 2.6 0.00 0.00 0.00 83
20260905052528 68 71 1.7 2.6 0.00 0.00 0.00 83
20260905051527 68 81 1.7 2.6 0.00 0.00 0.00 83
20260905050524 68 98 0.9 3.5 0.00 0.00 0.00 83
20260905045542 68 85 0.9 3.5 0.00 0.00 0.00 83
20260905044520 68 90 0.9 2.6 0.00 0.00 0.00 83
20260905043519 68 90 0.9 2.6 0.00 0.00 0.00 83
20260905042516 68 94 0.9 3.5 0.00 0.00 0.00 83
20260905041614 68 90 1.7 3.5 0.00 0.00 0.00 83
20260905040612 69 90 0.9 1.7 0.00 0.00 0.00 83
20260905035610 68 88 0.9 2.6 0.00 0.00 0.00 83
20260905034608 68 97 1.7 3.5 0.00 0.00 0.00 83
20260905033606 68 95 1.7 3.5 0.00 0.00 0.00 83
20260905032604 69 64 0.9 2.6 0.00 0.00 0.00 83
20260905031602 69 80 0.9 2.6 0.00 0.00 0.00 83
20260905030620 69 75 1.7 3.5 0.00 0.00 0.00 83
20260905025558 69 65 0.9 3.5 0.00 0.00 0.00 83
20260905024556 69 90 0.9 2.6 0.00 0.00 0.00 83
20260905023554 69 90 0.0 1.7 0.00 0.00 0.00 84
20260905022552 69 90 0.0 1.7 0.00 0.00 0.00 84
20260905021650 69 135 0.0 1.7 0.00 0.00 0.00 84
20260905020608 68 90 1.7 1.7 0.00 0.00 0.00 84
20260905015546 68 76 0.9 2.6 0.00 0.00 0.00 84
20260905014544 68 45 0.9 2.6 0.00 0.00 0.00 84
20260905013604 68 45 0.0 1.7 0.00 0.00 0.00 84
20260905012540 68 49 0.9 1.7 0.00 0.00 0.00 84
20260905011538 68 45 1.7 2.6 0.00 0.00 0.00 84
20260905010537 68 51 1.7 3.5 0.00 0.00 0.00 83
20260905005534 68 43 3.5 5.2 0.00 0.00 0.00 82
20260905004533 69 36 2.6 4.3 0.00 0.00 0.00 82
20260905003550 69 79 0.9 2.6 0.00 0.00 0.00 82
20260905002528 69 44 1.7 3.5 0.00 0.00 0.00 81
20260905001526 69 27 0.9 1.7 0.00 0.00 0.00 81
20260905000525 68 0.0 1.7 0.00 0.00 0.00 80
20260904235523 68 52 0.0 1.7 0.00 0.00 0.00 80
20260904234521 69 50 0.9 2.6 0.00 0.00 0.00 79
20260904233518 69 53 1.7 3.5 0.00 0.00 0.00 77
20260904232517 69 45 1.7 2.6 0.00 0.00 0.00 76
20260904231615 69 45 0.0 1.7 0.00 0.00 0.00 76
20260904230613 69 0.0 0.9 0.00 0.00 0.00 76
20260904225611 69 45 0.0 1.7 0.00 0.00 0.00 75
20260904224609 69 90 0.0 1.7 0.00 0.00 0.00 76
20260904223607 69 75 0.9 1.7 0.00 0.00 0.00 75
20260904222626 70 73 0.0 1.7 0.00 0.00 0.00 75
20260904221603 70 80 0.0 1.7 0.00 0.00 0.00 74
20260904220601 70 90 1.7 3.5 0.00 0.00 0.00 74
20260904215559 70 76 1.7 3.5 0.00 0.00 0.00 74